Home   Weather   Myrtle Beach   Past weeks

Flag for USA Past Weather in Myrtle Beach, South Carolina, USA — Yesterday and Last 2 Weeks

Now
52 °F

Sunny.


Feels Like: 49 °F
Forecast: 42 / 55 °F
Wind: 9 mph from North

Location: Myrtle Beach Air Force Base

Current Time: Dec 3, 2016 at 2:54:33 pm

Latest Report: Dec 3, 2016 at 1:45 pm


Visibility: 10 mi

Pressure: 30.25 "Hg

Humidity: 44%

Dew Point: 30 °F

Location of Myrtle BeachLocation

Past Weather in Myrtle Beach — Graph

°F

Myrtle Beach Temperature Yesterday

Maximum temperature yesterday: 61 °F (at 2:45 pm)
Minimum temperature yesterday: 41 °F (at 11:55 pm)
Average temperature yesterday: 49 °F

High & Low Weather Summary for the Past Weeks

 TemperatureHumidityPressure
High79 °F (Nov 19, 1:45 pm)94% (Nov 25, 1:15 am)30.36 "Hg (Nov 25, 1:15 am)
Low34 °F (Nov 21, 5:15 am)17% (Nov 21, 2:47 pm)29.80 "Hg (Dec 1, 12:55 am)
Average54 °F68%30.14 "Hg
* Reported Nov 18 1:45 pm — Dec 3 1:45 pm, Myrtle Beach, Weather by CustomWeather, © 2016

Note: Actual official high and low records may vary slightly from our data, if they occured in-between our weather recording intervals... More about our weather records

Advertising

Myrtle Beach Weather History for the Previous 24 Hours

Scroll right to see more
 ConditionsComfort  
Time TempWeatherWind HumidityBarometerVisibility
1:45 pm
Sat, Dec 3
52 °FSunny.9 mph44%30.25 "Hg10 mi
11:45 am52 °FSunny.12 mph47%30.28 "Hg10 mi
10:45 am52 °FScattered clouds.10 mph50%30.32 "Hg10 mi
9:45 am48 °FScattered clouds.10 mph58%30.32 "Hg10 mi
8:45 am45 °FScattered clouds.9 mph66%30.31 "Hg10 mi
7:45 am43 °FSunny.9 mph71%30.29 "Hg10 mi
6:45 am43 °FClear.10 mph66%30.27 "Hg10 mi
5:35 am43 °FClear.7 mph66%30.25 "Hg10 mi
4:55 am43 °FClear.10 mph66%30.22 "Hg10 mi
4:35 am41 °FClear.8 mph76%30.22 "Hg10 mi
4:15 am41 °FClear.5 mph76%30.22 "Hg10 mi
3:55 am43 °FClear.5 mph71%30.22 "Hg10 mi
3:35 am43 °FClear.5 mph71%30.22 "Hg10 mi
3:15 am45 °FClear.3 mph71%30.21 "Hg10 mi
2:55 am45 °FClear.3 mph71%30.22 "Hg10 mi
2:35 am45 °FClear.7 mph71%30.23 "Hg10 mi
1:55 am43 °FClear.6 mph76%30.22 "Hg10 mi
1:35 am39 °FClear.3 mph81%30.22 "Hg10 mi
1:15 am39 °FClear.No wind87%30.20 "Hg10 mi
12:55 am43 °FClear.3 mph81%30.21 "Hg10 mi
12:35 am43 °FClear.No wind81%30.20 "Hg10 mi
11:55 pm
Fri, Dec 2
41 °FClear.No wind81%30.20 "Hg10 mi
11:15 pm45 °FClear.No wind71%30.21 "Hg10 mi
10:55 pm45 °FClear.No wind76%30.22 "Hg10 mi
9:45 pm43 °FClear.6 mph76%30.22 "Hg10 mi
8:45 pm46 °FClear.No wind66%30.20 "Hg10 mi
7:45 pm46 °FClear.6 mph71%30.20 "Hg10 mi
5:50 pm52 °FClear.7 mph54%30.16 "Hg10 mi
4:45 pm57 °FSunny.7 mph39%30.15 "Hg10 mi
3:45 pm61 °FSunny.8 mph34%30.14 "Hg10 mi
2:45 pm61 °FSunny.12 mph34%30.14 "Hg10 mi
Weather by CustomWeather, © 2016

See weather overviewHow to use our weather pages